East Porterville
DateTemperatureDew Point
09/06 - 09:00 AM76.6°57.2°
09/06 - 08:45 AM74.8°56.8°
09/06 - 08:30 AM73.7°55.6°
09/06 - 08:15 AM72.7°55.5°
09/06 - 08:00 AM70.1°55.6°
09/06 - 07:45 AM67.3°54.8°
09/06 - 07:30 AM64.9°54.2°
09/06 - 07:15 AM62.5°53.1°
09/06 - 07:00 AM61.8°53.3°
09/06 - 06:45 AM56.2°52.2°
09/06 - 06:30 AM53.6°51.9°
09/06 - 06:15 AM53.5°52.1°
09/06 - 06:00 AM53.7°52.3°
09/06 - 05:45 AM53.8°52.4°
09/06 - 05:30 AM54.2°52.5°
09/06 - 05:15 AM54.5°52.5°
09/06 - 05:00 AM54.7°52.2°
09/06 - 04:45 AM55.1°52.1°
09/06 - 04:30 AM55.4°52.0°
09/06 - 04:15 AM55.7°52.1°
09/06 - 04:00 AM56.3°52.2°
09/06 - 03:45 AM56.6°52.6°
09/06 - 03:30 AM56.9°52.6°
09/06 - 03:15 AM57.6°52.6°
09/06 - 03:00 AM58.1°53.2°
09/06 - 02:45 AM58.4°53.8°
09/06 - 02:30 AM59.1°54.1°
09/06 - 02:15 AM59.6°54.4°
09/06 - 02:00 AM59.9°54.3°
09/06 - 01:45 AM60.2°53.3°
09/06 - 01:30 AM60.7°53.3°
09/06 - 01:15 AM61.5°53.5°
09/06 - 01:00 AM62.3°53.1°
09/06 - 12:45 AM62.8°53.0°
09/06 - 12:30 AM63.4°53.6°
09/06 - 12:15 AM64.4°53.2°
09/06 - 12:00 AM65.3°53.4°
09/05 - 11:45 PM66.6°52.7°
09/05 - 11:30 PM67.4°50.9°
09/05 - 11:15 PM67.2°50.6°
09/05 - 11:00 PM66.1°51.2°
09/05 - 10:45 PM65.7°51.6°
09/05 - 10:30 PM65.8°52.7°
09/05 - 10:15 PM65.8°52.9°
09/05 - 10:00 PM65.5°52.9°
09/05 - 09:45 PM65.8°55.2°
09/05 - 09:30 PM66.5°56.3°
09/05 - 09:15 PM67.1°56.6°
09/05 - 09:00 PM67.4°57.5°
09/05 - 08:45 PM68.8°58.8°
09/05 - 08:30 PM69.7°58.4°
09/05 - 08:15 PM70.5°57.8°
09/05 - 08:00 PM71.7°58.6°
09/05 - 07:45 PM73.3°58.6°
09/05 - 07:30 PM75.0°58.5°
09/05 - 07:15 PM77.2°58.4°
09/05 - 07:00 PM79.5°57.9°
09/05 - 06:45 PM82.4°57.3°
09/05 - 06:30 PM84.2°56.3°
09/05 - 06:15 PM85.4°55.2°
09/05 - 06:00 PM86.4°54.0°
09/05 - 05:45 PM87.2°53.3°
09/05 - 05:30 PM87.9°53.4°
09/05 - 05:15 PM88.2°52.2°
09/05 - 05:00 PM88.7°52.8°
09/05 - 04:45 PM89.2°53.1°
09/05 - 04:30 PM89.3°54.0°
09/05 - 04:15 PM89.0°55.8°
09/05 - 04:00 PM88.6°56.1°
09/05 - 03:45 PM88.5°57.0°
09/05 - 03:30 PM88.1°57.3°
09/05 - 03:15 PM87.6°57.9°
09/05 - 03:00 PM87.9°58.0°
09/05 - 02:45 PM87.8°57.6°
09/05 - 02:30 PM88.3°58.0°
09/05 - 02:15 PM89.2°58.6°
09/05 - 02:00 PM89.3°58.5°
09/05 - 01:45 PM90.0°58.8°
09/05 - 01:30 PM89.8°58.4°
09/05 - 01:15 PM89.7°58.4°
09/05 - 01:00 PM88.2°57.7°
09/05 - 12:45 PM87.3°57.3°
09/05 - 12:30 PM87.6°57.7°
09/05 - 12:15 PM86.4°57.7°
09/05 - 12:00 PM85.6°57.4°
09/05 - 11:45 AM84.7°57.3°
09/05 - 11:30 AM84.4°57.5°
09/05 - 11:15 AM84.1°57.3°
09/05 - 11:00 AM82.8°56.7°
09/05 - 10:45 AM80.9°55.9°
09/05 - 10:30 AM79.5°55.6°
09/05 - 10:15 AM78.8°56.2°
09/05 - 10:00 AM78.3°56.8°
09/05 - 09:45 AM76.4°56.8°
09/05 - 09:30 AM74.1°56.2°
09/05 - 09:15 AM73.4°56.5°
09/05 - 09:00 AM72.1°56.2°
09/05 - 08:45 AM71.0°56.0°
09/05 - 08:30 AM70.4°56.2°
09/05 - 08:15 AM68.8°55.9°
09/05 - 08:00 AM66.7°55.1°
09/05 - 07:45 AM65.1°54.1°
09/05 - 07:30 AM63.0°54.5°
09/05 - 07:15 AM59.9°55.0°
09/05 - 07:00 AM58.4°54.8°
09/05 - 06:45 AM56.7°55.4°
09/05 - 06:30 AM55.8°55.2°
09/05 - 06:15 AM55.6°55.2°
09/05 - 06:00 AM54.9°54.6°
09/05 - 05:45 AM54.9°54.1°
09/05 - 05:30 AM55.2°54.2°
09/05 - 05:15 AM55.7°54.5°
09/05 - 05:00 AM56.2°54.7°
09/05 - 04:45 AM56.5°54.6°
09/05 - 04:30 AM56.9°54.8°
09/05 - 04:15 AM56.9°54.8°
09/05 - 04:00 AM57.2°54.7°
09/05 - 03:45 AM57.7°54.6°
09/05 - 03:30 AM58.1°54.7°
09/05 - 03:15 AM58.2°55.0°
09/05 - 03:00 AM58.1°55.8°
09/05 - 02:45 AM57.8°56.0°
09/05 - 02:30 AM58.0°56.2°
09/05 - 02:15 AM58.3°56.5°
09/05 - 02:00 AM58.6°56.4°
09/05 - 01:45 AM58.9°56.9°
09/05 - 01:30 AM59.4°57.0°
09/05 - 01:15 AM59.7°57.0°
09/05 - 01:00 AM60.1°57.1°
09/05 - 12:45 AM60.5°57.0°
09/05 - 12:30 AM60.9°57.0°
09/05 - 12:15 AM61.4°57.1°
09/05 - 12:00 AM61.7°57.0°
09/04 - 11:45 PM62.1°57.5°
09/04 - 11:30 PM62.4°58.2°
09/04 - 11:15 PM62.9°58.7°
09/04 - 11:00 PM63.4°58.7°
09/04 - 10:45 PM64.0°59.0°
09/04 - 10:30 PM64.5°59.0°
09/04 - 10:15 PM64.8°58.5°
09/04 - 10:00 PM64.8°59.0°
09/04 - 09:45 PM65.6°59.0°
09/04 - 09:30 PM66.0°58.8°
09/04 - 09:15 PM66.4°58.2°
09/04 - 09:00 PM67.4°58.4°
09/04 - 08:45 PM68.3°58.3°
09/04 - 08:30 PM69.4°59.0°
09/04 - 08:15 PM70.4°59.1°
09/04 - 08:00 PM71.5°59.2°
09/04 - 07:45 PM72.7°59.1°
09/04 - 07:30 PM74.1°59.2°
09/04 - 07:15 PM75.8°59.7°
09/04 - 07:00 PM77.6°59.8°
09/04 - 06:45 PM79.0°59.1°
09/04 - 06:30 PM80.1°58.4°
09/04 - 06:15 PM81.0°58.3°
09/04 - 06:00 PM81.9°58.5°
09/04 - 05:45 PM82.6°58.5°
09/04 - 05:30 PM83.2°59.1°
09/04 - 05:15 PM83.7°59.3°
09/04 - 05:00 PM84.1°59.5°
09/04 - 04:45 PM84.3°59.5°
09/04 - 04:30 PM84.6°59.6°
09/04 - 04:15 PM84.3°59.4°
09/04 - 04:00 PM84.4°59.3°
09/04 - 03:45 PM84.5°59.8°
09/04 - 03:30 PM84.3°59.9°
09/04 - 03:15 PM84.7°60.2°
09/04 - 03:00 PM84.5°59.9°
09/04 - 02:45 PM84.3°59.9°
09/04 - 02:30 PM84.2°60.3°
09/04 - 02:15 PM85.1°60.6°
09/04 - 02:00 PM85.7°61.0°
09/04 - 01:45 PM85.4°61.0°
09/04 - 01:30 PM84.9°60.8°
09/04 - 01:15 PM85.1°61.2°
09/04 - 01:00 PM84.4°61.5°
09/04 - 12:45 PM84.0°61.5°
09/04 - 12:30 PM84.1°61.3°
09/04 - 12:15 PM83.2°60.8°
09/04 - 12:00 PM82.4°61.3°
09/04 - 11:45 AM81.6°60.4°
09/04 - 11:30 AM81.3°60.7°
09/04 - 11:15 AM80.7°61.5°
09/04 - 11:00 AM78.8°60.9°
09/04 - 10:45 AM78.0°60.9°
09/04 - 10:30 AM77.2°60.8°
09/04 - 10:15 AM76.5°60.2°
09/04 - 10:00 AM76.1°60.5°
09/04 - 09:45 AM75.0°60.1°